ATLAS 5 CENTAUR DEB, 43994

Orbit data source: Space-Track

ATLAS 5 CENTAUR DEB, 43994 is space debris in HEO originally from a launch on Wed, 17 Sep 2014 UTC launched from the Air Force Eastern Test Range (AFETR). Debris objects in space refer to the collection of defunct objects orbiting the Earth. Examples of debris include non-operational satellites, rocket bodies, and fragments generated from explosions, collisions, or faulty payload assembly.

Loading next visibility...
Identifier
43994, 2014-055AZ
Orbit
HEO
Country
Flag of USUS
Related business
Flag of USUnited Launch Alliance/Lockheed Martin (US)
Manufacturer
Unknown
Mission
Spacecraft
Bus & Motor
Unknown
Mass
Unknown
Launch date (UTC)
2014-09-17 (12 years ago)
Launch vehicle
Unknown
Launch site
Air Force Eastern Test Range (AFETR)
Object type
Payload
Rocket body
Debris
Shape & HBR
Unknown shape, 1.1 m
Radar Cross Section
RCS unknown

Expand to show TLE details & history
Last TLE update: 2 days ago

TLE from 2 days ago
0 ATLAS 5 CENTAUR DEB
1 43994U 14055AZ  26118.44961235 -.00000019  00000-0  00000-0 0  9997
2 43994  19.3692 183.3533 4626404  97.9980 315.0776  1.80954448 49921
Epoch: 2026-04-28T10:47Z
TLE epoch observation values (Epoch: 2026-04-28T10:47:26.507Z)
Latitude
-0.00001°
Longitude
165.15357°
Altitude
17,500.607 km
Speed
4.402 km/s
True Right ascension
12h 13m 45s
True Declination
0° 00' 00"
Sunlit
Object was in daylight at epoch
Visualization orbit readout
Latitude
Unknown
Longitude
Unknown
Altitude
Unknown
Speed
Unknown
Apparent Right ascension
Unknown
Apparent Declination
Unknown
Sunlit
N/A
Visualization observer readout
Local Sidereal Time
09:32:37
Azimuth
Unknown
Elevation
Unknown
Doppler factor
Unknown
Orbital elements
Apogee altitude
35,230.979 km
Perigee altitude
8,908.64 km
Semi-major axis
28,447.947 km
Eccentricity
0.46264
Inclination
19.3692°
RAAN
183.3533°
Arg. of periapsis
97.998°
True anomaly
261.97314°
Mean anomaly
315.0776°
Eccentric anomaly
290.20077°
Mean motion
0.45234 °/min
Orbital period
795.86 mins
BSTAR
0
Loading maneuver chart data...
Computing Atmospheric mass density...

Documentation

Showing up to 5 results
|